Regional Weather Roundup
Issued by NWS

Home | Current Version | Previous Version | Text Only | Print | Product List | Glossary On
Versions: 1 2 3 4 5 6 7 8 9 10 11 12 13 14 15 16 17 18 19 20 21 22 23 24 25 26 27 28 29 30 31 32 33 34 35 36 37 38 39 40 41 42 43 44 45 46 47 48 49 50
000
ASUS43 KFSD 300110
RWRSD

WEATHER ROUNDUP FOR SOUTH DAKOTA
NATIONAL WEATHER SERVICE SIOUX FALLS SD
800 PM CDT SUN MAY 29 2016

NOTE: "FAIR" INDICATES FEW OR NO CLOUDS BELOW 12,000 FEET WITH NO
SIGNIFICANT WEATHER AND/OR OBSTRUCTIONS TO VISIBILITY.


SDZ001>005-009-010-012>017-300200-
NORTHWEST AND NORTH CENTRAL SOUTH DAKOTA

CITY           SKY/WX    TMP DP  RH WIND       PRES   REMARKS
BUFFALO          N/A     74  48  39 SE14      29.90S
FAITH            N/A     67  48  50 E17       29.99S
MOBRIDGE       LGT RAIN  64  56  75 SE10      29.97S
$$

SDZ012>016-024>037-041>051-057-063-072>074-300200-
SOUTHWEST AND SOUTH CENTRAL SOUTH DAKOTA

CITY           SKY/WX    TMP DP  RH WIND       PRES   REMARKS
RAPID CTY ARPT SUNNY     73  52  47 E9        29.96F
PIERRE         SUNNY     70  54  56 E8        29.95S
CUSTER         SUNNY     68  29  23 VRB7      30.07F
ELLSWORTH AFB  SUNNY     74  51  44 E7        29.96F
PHILIP         CLOUDY    75  58  55 E9        29.94F
PINE RIDGE     SUNNY     78  48  34 NE6       29.95F
WINNER         FAIR      76  57  51 E12       29.97S
$$

SDZ004>011-016>023-039-040-300200-
NORTHEAST SOUTH DAKOTA

CITY           SKY/WX    TMP DP  RH WIND       PRES   REMARKS
ABERDEEN       SUNNY     75  47  36 W7        29.96F
WATERTOWN      CLEAR     73  47  39 NW7       29.98S
BROOKINGS      CLEAR     73  52  47 NW7       29.99F
SISSETON         N/A     77  42  28 NW9       29.94S
$$

SDZ017-020-022-023-036>040-048>070-300200-
SOUTHEAST SOUTH DAKOTA

CITY           SKY/WX    TMP DP  RH WIND       PRES   REMARKS
SIOUX FALLS    CLEAR     74  54  49 NE5       29.99S
HURON          SUNNY     75  49  39 S3        29.97S
CHAMBERLAIN    SUNNY     75  59  57 E7        29.98S
MITCHELL       CLEAR     76  56  49 E3        29.99S
YANKTON        CLEAR     75  55  50 E6        29.98R
$$

ABBREVIATIONS USED IN REMARKS
   TC - TEMPERATURE IN CELSIUS
  WCI - WIND CHILL INDEX
   HX - HEAT INDEX
  VSB - VISIBILITY





USA.gov is the U.S. government's official web portal to all federal, state and local government web resources and services.